When you browse on this site, cookies collect data to enhance your experience and personalize the content and advertising you see.
Visit our Privacy Policy to learn more. By continuing to use the site, you agree to this use of cookies and data.
  • In Czech Republic
  • List of Countries
  • For 7 days
  • Water Temperature
  • Weather Map
  • Weather Widgets
  • user-avatar
    Login

    Hourly Weather Polotsk

    Today, 6 June, Saturday

    Time Temperature Precipitation Wind Pressure Humidity
    00:00 +14°C° 0 mm 5 mps 738 mmHg 83%
    01:00 +14°C° 0 mm 5 mps 738 mmHg 87%
    02:00 +14°C° 0 mm 4 mps 738 mmHg 93%
    03:00 +14°C° 0.3 mm 4 mps 738 mmHg 94%
    04:00 +14°C° 0.3 mm 4 mps 738 mmHg 95%
    05:00 +14°C° 0.3 mm 4 mps 738 mmHg 96%
    06:00 +15°C° 0.2 mm 4 mps 738 mmHg 95%
    07:00 +15°C° 0.2 mm 4 mps 738 mmHg 95%
    08:00 +15°C° 0 mm 4 mps 739 mmHg 94%
    09:00 +17°C° 0.2 mm 4 mps 739 mmHg 92%
    10:00 +18°C° 0.2 mm 4 mps 739 mmHg 90%
    11:00 +18°C° 0.2 mm 4 mps 740 mmHg 88%
    12:00 +20°C° 0.3 mm 4 mps 740 mmHg 79%
    13:00 +21°C° 0.3 mm 5 mps 740 mmHg 70%
    14:00 +23°C° 0.3 mm 5 mps 741 mmHg 62%
    15:00 +23°C° 0 mm 5 mps 741 mmHg 61%
    16:00 +22°C° 0 mm 5 mps 741 mmHg 61%
    17:00 +22°C° 0 mm 5 mps 741 mmHg 61%
    18:00 +20°C° 0 mm 4 mps 742 mmHg 67%
    19:00 +19°C° 0 mm 3 mps 742 mmHg 74%
    20:00 +17°C° 0 mm 2 mps 743 mmHg 81%
    21:00 +16°C° 0 mm 2 mps 744 mmHg 84%
    22:00 +15°C° 0 mm 2 mps 744 mmHg 87%
    23:00 +14°C° 0 mm 2 mps 745 mmHg 90%

    Tomorrow, 7 June, Sunday

    Time Temperature Precipitation Wind Pressure Humidity
    00:00 +13°C° 0 mm 2 mps 745 mmHg 90%
    01:00 +13°C° 0 mm 1 mps 745 mmHg 90%
    02:00 +13°C° 0 mm 1 mps 746 mmHg 90%
    03:00 +13°C° 0 mm 2 mps 746 mmHg 89%
    04:00 +14°C° 0 mm 2 mps 746 mmHg 88%
    05:00 +14°C° 0 mm 2 mps 746 mmHg 86%
    06:00 +16°C° 0 mm 2 mps 747 mmHg 81%
    07:00 +18°C° 0 mm 2 mps 747 mmHg 77%
    08:00 +20°C° 0 mm 3 mps 747 mmHg 72%
    09:00 +21°C° 0 mm 3 mps 747 mmHg 68%
    10:00 +22°C° 0 mm 3 mps 748 mmHg 63%
    11:00 +24°C° 0 mm 3 mps 748 mmHg 59%
    12:00 +23°C° 0 mm 4 mps 748 mmHg 59%
    13:00 +25°C° 0 mm 4 mps 748 mmHg 58%
    14:00 +25°C° 0 mm 5 mps 747 mmHg 57%
    15:00 +25°C° 0 mm 5 mps 747 mmHg 59%
    16:00 +25°C° 0 mm 5 mps 747 mmHg 60%
    17:00 +23°C° 0 mm 5 mps 746 mmHg 62%
    18:00 +22°C° 0 mm 4 mps 746 mmHg 69%
    19:00 +21°C° 0 mm 4 mps 746 mmHg 76%
    20:00 +20°C° 0 mm 4 mps 746 mmHg 83%
    21:00 +19°C° 0.4 mm 4 mps 746 mmHg 85%
    22:00 +18°C° 0.4 mm 4 mps 746 mmHg 88%
    23:00 +17°C° 0.4 mm 4 mps 746 mmHg 91%

    Day after tomorrow, 8 June, Monday

    Time Temperature Precipitation Wind Pressure Humidity
    00:00 +18°C° 0.1 mm 4 mps 746 mmHg 93%
    01:00 +18°C° 0.1 mm 3 mps 746 mmHg 95%
    02:00 +18°C° 0.1 mm 3 mps 746 mmHg 96%
    03:00 +18°C° 0 mm 3 mps 746 mmHg 96%
    04:00 +18°C° 0 mm 3 mps 746 mmHg 95%
    05:00 +17°C° 0 mm 3 mps 745 mmHg 95%
    06:00 +19°C° 0 mm 3 mps 746 mmHg 90%
    07:00 +20°C° 0 mm 4 mps 746 mmHg 85%
    08:00 +22°C° 0 mm 4 mps 746 mmHg 81%
    09:00 +23°C° 0 mm 4 mps 746 mmHg 74%
    10:00 +26°C° 0 mm 5 mps 746 mmHg 67%
    11:00 +28°C° 0 mm 5 mps 746 mmHg 59%
    12:00 +28°C° 0 mm 5 mps 746 mmHg 57%
    13:00 +29°C° 0 mm 5 mps 746 mmHg 54%
    14:00 +30°C° 0 mm 5 mps 746 mmHg 51%
    15:00 +29°C° 0 mm 4 mps 746 mmHg 54%
    16:00 +29°C° 0 mm 4 mps 746 mmHg 56%
    17:00 +29°C° 0 mm 4 mps 746 mmHg 58%
    18:00 +27°C° 0.1 mm 3 mps 746 mmHg 66%
    19:00 +25°C° 0.1 mm 3 mps 746 mmHg 74%
    20:00 +22°C° 0.1 mm 3 mps 746 mmHg 82%
    21:00 +21°C° 0 mm 3 mps 746 mmHg 85%
    22:00 +20°C° 0 mm 3 mps 746 mmHg 89%
    23:00 +19°C° 0 mm 2 mps 746 mmHg 92%

    9 June, Tuesday

    Time Temperature Precipitation Wind Pressure Humidity
    00:00 +19°C° 0 mm 2 mps 746 mmHg 93%
    01:00 +18°C° 0 mm 2 mps 746 mmHg 93%
    02:00 +18°C° 0 mm 2 mps 746 mmHg 94%
    03:00 +18°C° 0 mm 2 mps 746 mmHg 93%
    04:00 +18°C° 0 mm 2 mps 747 mmHg 93%
    05:00 +18°C° 0 mm 2 mps 747 mmHg 93%
    06:00 +20°C° 0 mm 2 mps 747 mmHg 87%
    07:00 +22°C° 0 mm 3 mps 747 mmHg 81%
    08:00 +25°C° 0 mm 3 mps 747 mmHg 74%
    09:00 +26°C° 0 mm 3 mps 747 mmHg 69%
    10:00 +27°C° 0 mm 3 mps 747 mmHg 63%
    11:00 +28°C° 0 mm 4 mps 747 mmHg 57%
    12:00 +29°C° 0 mm 3 mps 747 mmHg 56%
    13:00 +29°C° 0 mm 3 mps 747 mmHg 54%
    14:00 +29°C° 0 mm 3 mps 747 mmHg 53%
    15:00 +29°C° 0.8 mm 2 mps 747 mmHg 58%
    16:00 +28°C° 0.8 mm 2 mps 747 mmHg 63%
    17:00 +27°C° 0.8 mm 1 mps 747 mmHg 68%
    18:00 +26°C° 0.1 mm 1 mps 747 mmHg 73%
    19:00 +24°C° 0.1 mm 1 mps 747 mmHg 78%
    20:00 +23°C° 0.1 mm 1 mps 747 mmHg 83%
    21:00 +22°C° 0 mm 1 mps 747 mmHg 85%
    22:00 +21°C° 0 mm 1 mps 748 mmHg 88%
    23:00 +20°C° 0 mm 1 mps 748 mmHg 90%

    10 June, Wednesday

    Time Temperature Precipitation Wind Pressure Humidity
    00:00 +20°C° 0 mm 1 mps 748 mmHg 90%
    01:00 +20°C° 0 mm 1 mps 748 mmHg 91%
    02:00 +19°C° 0 mm 1 mps 747 mmHg 91%
    03:00 +20°C° 0 mm 1 mps 748 mmHg 91%
    04:00 +20°C° 0 mm 1 mps 748 mmHg 91%
    05:00 +20°C° 0 mm 1 mps 748 mmHg 91%
    06:00 +22°C° 0 mm 1 mps 748 mmHg 85%
    07:00 +24°C° 0 mm 1 mps 748 mmHg 79%
    08:00 +25°C° 0 mm 1 mps 748 mmHg 73%
    09:00 +27°C° 0.1 mm 1 mps 748 mmHg 67%
    10:00 +28°C° 0.1 mm 1 mps 748 mmHg 61%
    11:00 +29°C° 0.1 mm 1 mps 748 mmHg 55%
    12:00 +30°C° 0 mm 1 mps 748 mmHg 53%
    13:00 +30°C° 0 mm 2 mps 747 mmHg 51%
    14:00 +30°C° 0 mm 2 mps 747 mmHg 49%
    15:00 +30°C° 0 mm 2 mps 747 mmHg 52%
    16:00 +30°C° 0 mm 2 mps 747 mmHg 54%
    17:00 +30°C° 0 mm 2 mps 747 mmHg 57%
    18:00 +28°C° 0.1 mm 2 mps 746 mmHg 65%
    19:00 +26°C° 0.1 mm 2 mps 746 mmHg 74%
    20:00 +24°C° 0.1 mm 2 mps 746 mmHg 83%
    21:00 +23°C° 0.1 mm 2 mps 746 mmHg 85%
    22:00 +22°C° 0.1 mm 1 mps 746 mmHg 88%
    23:00 +21°C° 0.1 mm 1 mps 746 mmHg 91%

    11 June, Thursday

    Time Temperature Precipitation Wind Pressure Humidity
    00:00 +20°C° 0.1 mm 1 mps 746 mmHg 92%
    01:00 +20°C° 0.1 mm 1 mps 746 mmHg 93%
    02:00 +20°C° 0.1 mm 1 mps 746 mmHg 95%
    03:00 +20°C° 0 mm 1 mps 746 mmHg 95%
    04:00 +20°C° 0 mm 1 mps 746 mmHg 94%
    05:00 +20°C° 0 mm 1 mps 746 mmHg 94%
    06:00 +21°C° 0 mm 2 mps 746 mmHg 88%
    07:00 +24°C° 0 mm 2 mps 746 mmHg 82%
    08:00 +25°C° 0 mm 2 mps 746 mmHg 76%
    09:00 +27°C° 0 mm 2 mps 746 mmHg 71%
    10:00 +28°C° 0 mm 2 mps 746 mmHg 65%
    11:00 +29°C° 0 mm 3 mps 746 mmHg 59%
    12:00 +29°C° 0.1 mm 3 mps 746 mmHg 58%
    13:00 +30°C° 0.1 mm 3 mps 745 mmHg 57%
    14:00 +30°C° 0.1 mm 3 mps 745 mmHg 56%
    15:00 +30°C° 0.2 mm 3 mps 745 mmHg 58%
    16:00 +29°C° 0.2 mm 3 mps 745 mmHg 61%
    17:00 +29°C° 0.2 mm 3 mps 745 mmHg 64%
    18:00 +27°C° 0.2 mm 3 mps 745 mmHg 71%
    19:00 +26°C° 0.2 mm 2 mps 745 mmHg 79%
    20:00 +24°C° 0.2 mm 2 mps 745 mmHg 86%
    21:00 +23°C° 0.5 mm 2 mps 745 mmHg 88%
    22:00 +23°C° 0.5 mm 2 mps 745 mmHg 90%
    23:00 +21°C° 0.5 mm 2 mps 745 mmHg 92%
    Show more